Tracking 19170 objects as of 22-May-2018
HD Live streaming from Space Station
objects crossing your sky now

COSMOS 1924

Track COSMOS 1924 now!
10-day predictions
COSMOS 1924 is classified as:


NORAD ID: 18937
Int'l Code: 1988-016A
Perigee: 1,467.6 km
Apogee: 1,521.2 km
Inclination: 74.0 °
Period: 115.7 minutes
Semi major axis: 7865 km
RCS: 0.6962 m2 (medium)
Launch date: March 11, 1988
Source: Commonwealth of Independent States (former USSR) (CIS)
Launch site: PLESETSK MISSILE AND SPACE COMPLEX (PKMTR)
aabbcc
Your satellite tracking list
Your tracking list is empty




NASA's NSSDC Master Catalog

Two Line Element Set (TLE):
1 18937U 88016A   18142.24501716 -.00000009 +00000-0 +46661-4 0  9990
2 18937 074.0079 052.8578 0034115 096.7256 020.1229 12.44578887371899
Source of the keplerian elements: AFSPC